This is the latest recevied weather packets stored in our database for station/object KD2SIG. If no packets are shown the sender has not sent any weather packets the latest 10 day(s).
| Time | Temp. | Humidity | Pressure | Rain* | Wind** | Luminosity | Snow |
|---|---|---|---|---|---|---|---|
| 1777993115 | 20.56° C | 68% | 1003.1 hPa | 0 mm | - | 164 W/m² | - |
| 1777992813 | 20.56° C | 64% | 1002.8 hPa | 0 mm | - | 93 W/m² | - |
| 1777992511 | 21.11° C | 63% | 1002.8 hPa | 0 mm | - | 105 W/m² | - |
| 1777992209 | 21.67° C | 63% | 1002.8 hPa | 0 mm | - | 144 W/m² | - |
| 1777991906 | 21.67° C | 62% | 1002.7 hPa | 0 mm | - | 301 W/m² | - |
| 1777991603 | 21.67° C | 62% | 1002.8 hPa | 0 mm | - | 346 W/m² | - |
| 1777991300 | 21.67° C | 61% | 1002.9 hPa | 0 mm | - | 354 W/m² | - |
| 1777990998 | 21.67° C | 61% | 1002.7 hPa | 0 mm | - | 349 W/m² | - |
| 1777990695 | 21.67° C | 62% | 1002.7 hPa | 0 mm | - | 340 W/m² | - |
| 1777990392 | 21.11° C | 62% | 1002.6 hPa | 0 mm | - | 314 W/m² | - |
| 1777989785 | 21.67° C | 62% | 1002.7 hPa | 0 mm | - | 278 W/m² | - |
| 1777989482 | 21.67° C | 62% | 1002.7 hPa | 0 mm | - | 409 W/m² | - |
| 1777989178 | 21.11° C | 62% | 1002.6 hPa | 0 mm | - | 502 W/m² | - |
| 1777988874 | 21.67° C | 63% | 1002.7 hPa | 0 mm | - | 312 W/m² | - |
| 1777988572 | 21.67° C | 62% | 1002.6 hPa | 0 mm | - | 388 W/m² | - |
| 1777988268 | 21.11° C | 64% | 1002.6 hPa | 0 mm | - | 478 W/m² | - |
| 1777987965 | 21.11° C | 65% | 1002.6 hPa | 0 mm | - | 527 W/m² | - |
| 1777987660 | 20.56° C | 66% | 1002.6 hPa | 0 mm | - | 563 W/m² | - |
| 1777987358 | 20.56° C | 66% | 1002.6 hPa | 0 mm | - | 394 W/m² | - |
| 1777987055 | 20° C | 66% | 1002.6 hPa | 0 mm | - | 511 W/m² | - |
| 1777986752 | 20° C | 67% | 1002.7 hPa | 0 mm | - | 464 W/m² | - |
| 1777986450 | 20° C | 66% | 1002.5 hPa | 0 mm | - | 344 W/m² | - |
| 1777986148 | 20° C | 66% | 1002.6 hPa | 0 mm | - | 160 W/m² | - |
| 1777985845 | 20° C | 66% | 1002.5 hPa | 0 mm | - | 388 W/m² | - |
| 1777985542 | 20° C | 66% | 1002.5 hPa | 0 mm | - | 246 W/m² | - |
* Rain latest hour (hover to see other rain measurements)
** Current wind speed in m/s (hover to see current wind gust speed)